TimeEST,TemperatureF,Dew PointF,Humidity,Sea Level PressureIn,VisibilityMPH,Wind Direction,Wind SpeedMPH,Gust SpeedMPH,PrecipitationIn,Events,Conditions,WindDirDegrees,DateUTC
12:53 AM,-0.0,-7.1,72,30.23,10.0,Calm,Calm,-,N/A,,Clear,0,2014-01-22 05:53:00
1:53 AM,-2.0,-8.0,76,30.21,10.0,Calm,Calm,-,N/A,,Clear,0,2014-01-22 06:53:00
2:53 AM,-0.0,-8.0,69,30.20,10.0,SSW,3.5,-,N/A,,Mostly Cloudy,210,2014-01-22 07:53:00
3:53 AM,-0.0,-8.0,69,30.19,10.0,Calm,Calm,-,N/A,,Overcast,0,2014-01-22 08:53:00
4:53 AM,-0.9,-8.0,72,30.16,10.0,SE,4.6,-,N/A,,Mostly Cloudy,140,2014-01-22 09:53:00
5:53 AM,1.0,-8.0,66,30.14,10.0,South,6.9,-,N/A,,Overcast,190,2014-01-22 10:53:00
6:53 AM,1.0,-8.0,66,30.12,10.0,South,5.8,-,N/A,,Overcast,180,2014-01-22 11:53:00
7:53 AM,1.0,-7.1,69,30.12,10.0,South,5.8,-,N/A,,Overcast,170,2014-01-22 12:53:00
8:53 AM,3.9,-5.1,66,30.09,10.0,SE,8.1,-,N/A,,Overcast,140,2014-01-22 13:53:00
9:53 AM,5.0,-4.0,66,30.09,3.0,SSE,9.2,-,N/A,,Haze,160,2014-01-22 14:53:00
10:04 AM,6.8,-2.2,67,30.04,2.0,SSE,8.1,-,0.00,Snow,Light Snow,160,2014-01-22 15:04:00
10:15 AM,5.0,-2.2,72,30.03,0.5,SSE,8.1,-,0.00,Snow,Light Snow,160,2014-01-22 15:15:00
10:53 AM,6.1,1.0,80,30.07,1.0,SSE,10.4,-,0.00,Snow,Light Snow,160,2014-01-22 15:53:00
11:41 AM,6.8,1.4,79,29.99,1.0,South,13.8,-,0.00,Snow,Light Snow,170,2014-01-22 16:41:00
11:53 AM,8.1,1.0,73,30.04,1.0,South,12.7,-,0.00,Snow,Light Snow,170,2014-01-22 16:53:00
12:09 PM,8.6,1.4,73,29.97,0.5,South,12.7,-,0.00,Snow,Light Snow,170,2014-01-22 17:09:00
12:53 PM,9.0,3.9,80,30.00,0.8,South,11.5,-,0.00,Snow,Light Snow,180,2014-01-22 17:53:00
1:53 PM,10.9,5.0,77,29.96,0.8,South,11.5,-,0.00,Snow,Light Snow,180,2014-01-22 18:53:00
2:42 PM,10.4,5.0,79,29.90,1.5,SSE,11.5,-,0.00,Snow,Light Snow,160,2014-01-22 19:42:00
2:53 PM,10.9,5.0,77,29.95,5.0,SSE,12.7,-,0.00,,Haze,160,2014-01-22 19:53:00
3:04 PM,10.4,3.2,73,29.89,2.0,South,13.8,-,0.00,Snow,Light Snow,170,2014-01-22 20:04:00
3:40 PM,10.4,5.0,79,29.89,3.0,South,12.7,-,0.00,Snow,Light Snow,170,2014-01-22 20:40:00
3:53 PM,10.9,3.9,73,29.94,3.0,South,12.7,-,0.00,,Haze,170,2014-01-22 20:53:00
4:02 PM,10.4,5.0,79,29.90,2.0,South,11.5,-,0.00,Snow,Light Snow,170,2014-01-22 21:02:00
4:14 PM,10.4,5.0,79,29.90,1.8,South,11.5,-,0.00,Snow,Light Snow,170,2014-01-22 21:14:00
4:45 PM,10.4,5.0,79,29.90,1.8,South,12.7,-,0.00,Snow,Light Snow,170,2014-01-22 21:45:00
4:53 PM,10.9,5.0,77,29.95,1.8,South,13.8,-,0.00,Snow,Light Snow,180,2014-01-22 21:53:00
5:13 PM,10.4,5.0,79,29.90,1.8,South,12.7,-,0.00,Snow,Light Snow,180,2014-01-22 22:13:00
5:53 PM,10.9,5.0,77,29.96,2.0,SSE,10.4,-,0.00,Snow,Light Snow,160,2014-01-22 22:53:00
6:53 PM,10.9,6.1,81,29.96,2.0,South,10.4,-,0.00,Snow,Light Snow,170,2014-01-22 23:53:00
7:04 PM,10.4,6.8,85,29.91,2.0,South,10.4,-,0.00,Snow,Light Snow,170,2014-01-23 00:04:00
7:29 PM,10.4,6.8,85,29.92,2.0,South,9.2,-,0.00,Snow,Light Snow,180,2014-01-23 00:29:00
7:46 PM,10.4,6.8,85,29.92,2.0,South,8.1,-,0.00,,Haze,180,2014-01-23 00:46:00
7:53 PM,10.9,6.1,81,29.97,2.0,South,8.1,-,0.00,,Haze,180,2014-01-23 00:53:00
8:26 PM,10.4,6.8,85,29.92,2.0,South,6.9,-,0.00,,Haze,180,2014-01-23 01:26:00
8:53 PM,10.0,5.0,80,29.97,2.5,South,4.6,-,0.00,,Overcast,170,2014-01-23 01:53:00
9:10 PM,10.4,6.8,85,29.92,2.5,South,4.6,-,0.00,Snow,Light Snow,170,2014-01-23 02:10:00
9:45 PM,10.4,5.0,79,29.92,2.5,South,6.9,-,0.00,Snow,Light Snow,170,2014-01-23 02:45:00
9:53 PM,10.0,5.0,80,29.97,2.5,South,6.9,-,0.00,Snow,Light Snow,170,2014-01-23 02:53:00
10:53 PM,10.0,5.0,80,29.97,2.5,SSE,4.6,-,0.00,Snow,Light Snow,160,2014-01-23 03:53:00
11:53 PM,9.0,5.0,84,29.98,2.5,SSE,3.5,-,0.00,,Overcast,150,2014-01-23 04:53:00